Time,TemperatureF,DewpointF,PressureIn,WindDirection,WindDirectionDegrees,WindSpeedMPH,WindSpeedGustMPH,Humidity,HourlyPrecipIn,Conditions,Clouds,dailyrainin,SoftwareType,DateUTC
2013-03-17 00:04:00,64.1,52.5,30.05,WNW,293,2.0,5.6,66,0.00,,,0.00,WUHU216HW,2013-03-17 04:04:00,
2013-03-17 00:09:00,64.1,52.0,30.05,West,270,2.5,5.6,65,0.00,,,0.00,WUHU216HW,2013-03-17 04:09:00,
2013-03-17 00:14:00,63.9,52.3,30.05,West,270,4.3,5.1,66,0.00,,,0.00,WUHU216HW,2013-03-17 04:14:00,
2013-03-17 00:19:00,63.7,51.7,30.05,West,270,3.4,4.9,65,0.00,,,0.00,WUHU216HW,2013-03-17 04:19:00,
2013-03-17 00:24:00,63.7,51.7,30.05,WSW,248,3.1,4.3,65,0.00,,,0.00,WUHU216HW,2013-03-17 04:24:00,
2013-03-17 00:29:00,63.5,52.4,30.05,NW,315,1.6,4.3,67,0.00,,,0.00,WUHU216HW,2013-03-17 04:29:00,
2013-03-17 00:34:00,63.4,52.7,30.05,WNW,293,2.9,4.7,68,0.00,,,0.00,WUHU216HW,2013-03-17 04:34:00,
2013-03-17 00:39:00,63.2,52.5,30.05,SSW,203,2.7,4.7,68,0.00,,,0.00,WUHU216HW,2013-03-17 04:39:00,
2013-03-17 00:44:00,63.0,52.7,30.05,West,270,3.4,4.3,69,0.00,,,0.00,WUHU216HW,2013-03-17 04:44:00,
2013-03-17 00:49:00,63.0,52.7,30.05,WSW,248,3.4,6.3,69,0.00,,,0.00,WUHU216HW,2013-03-17 04:49:00,
2013-03-17 00:54:00,62.6,52.3,30.05,West,270,2.5,6.3,69,0.00,,,0.00,WUHU216HW,2013-03-17 04:54:00,
2013-03-17 00:59:00,62.5,52.6,30.05,WSW,248,2.9,3.4,70,0.00,,,0.00,WUHU216HW,2013-03-17 04:59:00,
2013-03-17 01:04:00,62.3,52.0,30.05,West,270,2.5,3.4,69,0.00,,,0.00,WUHU216HW,2013-03-17 05:04:00,
2013-03-17 01:09:00,62.3,52.0,30.05,WSW,248,2.2,3.4,69,0.00,,,0.00,WUHU216HW,2013-03-17 05:09:00,
2013-03-17 01:14:00,62.1,51.8,30.05,NW,315,3.1,3.1,69,0.00,,,0.00,WUHU216HW,2013-03-17 05:14:00,
2013-03-17 01:19:00,61.9,51.7,30.05,WSW,248,3.4,4.3,69,0.00,,,0.00,WUHU216HW,2013-03-17 05:19:00,
2013-03-17 01:24:00,61.7,51.9,30.05,WSW,248,2.9,4.3,70,0.00,,,0.00,WUHU216HW,2013-03-17 05:24:00,
2013-03-17 01:29:00,61.6,51.8,30.04,WNW,293,1.8,3.6,70,0.00,,,0.00,WUHU216HW,2013-03-17 05:29:00,
2013-03-17 01:34:00,61.4,51.6,30.05,West,270,2.7,5.1,70,0.00,,,0.00,WUHU216HW,2013-03-17 05:34:00,
2013-03-17 01:39:00,61.2,51.9,30.05,NNW,338,1.1,5.1,71,0.00,,,0.00,WUHU216HW,2013-03-17 05:39:00,
2013-03-17 01:44:00,61.0,51.7,30.04,WSW,248,4.5,4.7,71,0.00,,,0.00,WUHU216HW,2013-03-17 05:44:00,
2013-03-17 01:49:00,61.0,51.7,30.05,WNW,293,2.9,4.7,71,0.00,,,0.00,WUHU216HW,2013-03-17 05:49:00,
2013-03-17 01:54:00,60.8,51.5,30.05,WNW,293,2.9,4.3,71,0.00,,,0.00,WUHU216HW,2013-03-17 05:54:00,
2013-03-17 01:59:00,60.7,51.7,30.05,WNW,293,2.5,4.3,72,0.00,,,0.00,WUHU216HW,2013-03-17 05:59:00,
2013-03-17 02:04:00,60.5,51.5,30.05,WSW,248,2.5,3.8,72,0.00,,,0.00,WUHU216HW,2013-03-17 06:04:00,
2013-03-17 02:09:00,60.3,51.3,30.05,West,270,1.1,3.8,72,0.00,,,0.00,WUHU216HW,2013-03-17 06:09:00,
2013-03-17 02:14:00,60.1,51.1,30.05,West,270,2.9,2.9,72,0.00,,,0.00,WUHU216HW,2013-03-17 06:14:00,
2013-03-17 02:19:00,59.9,51.3,30.05,NW,315,2.0,3.4,73,0.00,,,0.00,WUHU216HW,2013-03-17 06:19:00,
2013-03-17 02:24:00,59.8,51.1,30.05,WSW,248,1.8,3.4,73,0.00,,,0.00,WUHU216HW,2013-03-17 06:24:00,
2013-03-17 02:29:00,59.6,51.3,30.05,SSW,203,3.8,3.8,74,0.00,,,0.00,WUHU216HW,2013-03-17 06:29:00,
2013-03-17 02:34:00,59.4,51.5,30.05,SSW,203,2.2,4.5,75,0.00,,,0.00,WUHU216HW,2013-03-17 06:34:00,
2013-03-17 02:39:00,59.2,51.7,30.05,WSW,248,2.0,4.5,76,0.00,,,0.00,WUHU216HW,2013-03-17 06:39:00,
2013-03-17 02:44:00,59.2,51.3,30.05,WSW,248,1.1,3.4,75,0.00,,,0.00,WUHU216HW,2013-03-17 06:44:00,
2013-03-17 02:49:00,59.0,51.1,30.05,WSW,248,1.1,2.2,75,0.00,,,0.00,WUHU216HW,2013-03-17 06:49:00,
2013-03-17 02:54:00,58.9,51.3,30.05,WSW,248,1.6,1.8,76,0.00,,,0.00,WUHU216HW,2013-03-17 06:54:00,
2013-03-17 02:59:00,58.7,51.1,30.05,WSW,248,1.6,2.2,76,0.00,,,0.00,WUHU216HW,2013-03-17 06:59:00,
2013-03-17 03:04:00,58.5,50.9,30.05,SW,225,1.1,2.2,76,0.00,,,0.00,WUHU216HW,2013-03-17 07:04:00,
2013-03-17 03:09:00,58.1,50.6,30.04,West,270,0.0,1.6,76,0.00,,,0.00,WUHU216HW,2013-03-17 07:09:00,
2013-03-17 03:14:00,58.0,50.8,30.05,WSW,248,0.7,1.6,77,0.00,,,0.00,WUHU216HW,2013-03-17 07:14:00,
2013-03-17 03:19:00,57.8,50.6,30.05,West,270,2.9,2.9,77,0.00,,,0.00,WUHU216HW,2013-03-17 07:19:00,
2013-03-17 03:24:00,57.8,51.3,30.05,WNW,293,0.4,2.9,79,0.00,,,0.00,WUHU216HW,2013-03-17 07:24:00,
2013-03-17 03:29:00,57.8,51.3,30.04,NW,315,1.8,2.7,79,0.00,,,0.00,WUHU216HW,2013-03-17 07:29:00,
2013-03-17 03:34:00,57.6,51.1,30.04,West,270,1.1,2.7,79,0.00,,,0.00,WUHU216HW,2013-03-17 07:34:00,
2013-03-17 03:39:00,57.6,51.1,30.04,SW,225,1.1,2.0,79,0.00,,,0.00,WUHU216HW,2013-03-17 07:39:00,
2013-03-17 03:44:00,57.2,50.8,30.04,West,270,0.7,2.0,79,0.00,,,0.00,WUHU216HW,2013-03-17 07:44:00,
2013-03-17 03:49:00,57.1,50.9,30.04,SW,225,0.7,1.1,80,0.00,,,0.00,WUHU216HW,2013-03-17 07:49:00,
2013-03-17 03:54:00,56.9,50.4,30.04,SW,225,0.0,0.9,79,0.00,,,0.00,WUHU216HW,2013-03-17 07:54:00,
2013-03-17 03:59:00,56.7,50.2,30.03,SW,225,0.0,0.4,79,0.00,,,0.00,WUHU216HW,2013-03-17 07:59:00,
2013-03-17 04:04:00,56.5,50.0,30.03,WNW,293,0.9,1.3,79,0.00,,,0.00,WUHU216HW,2013-03-17 08:04:00,
2013-03-17 04:09:00,56.3,49.9,30.03,WSW,248,0.0,1.3,79,0.00,,,0.00,WUHU216HW,2013-03-17 08:09:00,
2013-03-17 04:14:00,56.2,49.7,30.03,West,270,0.7,1.1,79,0.00,,,0.00,WUHU216HW,2013-03-17 08:14:00,
2013-03-17 04:19:00,56.2,49.7,30.03,WSW,248,1.3,1.3,79,0.00,,,0.00,WUHU216HW,2013-03-17 08:19:00,
2013-03-17 04:24:00,56.0,50.2,30.03,WSW,248,0.9,1.3,81,0.00,,,0.00,WUHU216HW,2013-03-17 08:24:00,
2013-03-17 04:29:00,55.8,50.1,30.03,West,270,1.1,1.8,81,0.00,,,0.00,WUHU216HW,2013-03-17 08:29:00,
2013-03-17 04:34:00,55.6,49.9,30.03,West,270,1.6,1.8,81,0.00,,,0.00,WUHU216HW,2013-03-17 08:34:00,
2013-03-17 04:39:00,55.6,49.9,30.03,SW,225,1.8,1.8,81,0.00,,,0.00,WUHU216HW,2013-03-17 08:39:00,
2013-03-17 04:44:00,55.6,50.1,30.03,SW,225,0.7,1.8,82,0.00,,,0.00,WUHU216HW,2013-03-17 08:44:00,
2013-03-17 04:49:00,55.4,50.0,30.03,West,270,1.1,1.8,82,0.00,,,0.00,WUHU216HW,2013-03-17 08:49:00,
2013-03-17 04:54:00,55.6,50.5,30.03,WSW,248,0.9,1.8,83,0.00,,,0.00,WUHU216HW,2013-03-17 08:54:00,
2013-03-17 04:59:00,55.4,50.3,30.03,SSW,203,0.4,1.1,83,0.00,,,0.00,WUHU216HW,2013-03-17 08:59:00,
2013-03-17 05:04:00,55.3,50.1,30.03,WNW,293,1.1,1.3,83,0.00,,,0.00,WUHU216HW,2013-03-17 09:04:00,
2013-03-17 05:09:00,55.4,50.6,30.03,West,270,1.3,1.6,84,0.00,,,0.00,WUHU216HW,2013-03-17 09:09:00,
2013-03-17 05:14:00,55.3,50.8,30.03,SW,225,1.1,2.5,85,0.00,,,0.00,WUHU216HW,2013-03-17 09:14:00,
2013-03-17 05:19:00,55.3,50.5,30.03,SW,225,0.4,2.5,84,0.00,,,0.00,WUHU216HW,2013-03-17 09:19:00,
2013-03-17 05:24:00,55.1,50.3,30.03,WSW,248,1.1,2.2,84,0.00,,,0.00,WUHU216HW,2013-03-17 09:24:00,
2013-03-17 05:29:00,55.1,50.6,30.03,SW,225,1.1,2.2,85,0.00,,,0.00,WUHU216HW,2013-03-17 09:29:00,
2013-03-17 05:34:00,55.1,51.0,30.03,SW,225,0.4,1.8,86,0.00,,,0.00,WUHU216HW,2013-03-17 09:34:00,
2013-03-17 05:39:00,55.1,51.2,30.03,West,270,0.7,1.6,87,0.00,,,0.00,WUHU216HW,2013-03-17 09:39:00,
2013-03-17 05:44:00,55.1,51.2,30.04,WNW,293,1.1,1.6,87,0.00,,,0.00,WUHU216HW,2013-03-17 09:44:00,
2013-03-17 05:49:00,55.1,51.6,30.04,SW,225,0.7,1.8,88,0.00,,,0.00,WUHU216HW,2013-03-17 09:49:00,
2013-03-17 05:54:00,54.9,51.4,30.04,WSW,248,0.4,1.8,88,0.00,,,0.00,WUHU216HW,2013-03-17 09:54:00,
2013-03-17 05:59:00,54.9,51.4,30.04,WSW,248,0.0,0.9,88,0.00,,,0.00,WUHU216HW,2013-03-17 09:59:00,
2013-03-17 06:04:00,54.7,50.9,30.04,WSW,248,0.0,0.0,87,0.00,,,0.00,WUHU216HW,2013-03-17 10:04:00,
2013-03-17 06:09:00,54.7,50.9,30.04,WSW,248,0.0,0.0,87,0.00,,,0.00,WUHU216HW,2013-03-17 10:09:00,
2013-03-17 06:14:00,54.7,50.9,30.04,WSW,248,0.0,0.4,87,0.00,,,0.00,WUHU216HW,2013-03-17 10:14:00,
2013-03-17 06:19:00,54.7,50.9,30.05,West,270,0.0,0.7,87,0.00,,,0.00,WUHU216HW,2013-03-17 10:19:00,
2013-03-17 06:24:00,54.5,50.4,30.05,West,270,0.0,0.7,86,0.00,,,0.00,WUHU216HW,2013-03-17 10:24:00,
2013-03-17 06:29:00,54.4,50.2,30.05,West,270,0.0,0.0,86,0.00,,,0.00,WUHU216HW,2013-03-17 10:29:00,
2013-03-17 06:34:00,54.4,50.2,30.05,West,270,0.0,0.0,86,0.00,,,0.00,WUHU216HW,2013-03-17 10:34:00,
2013-03-17 06:39:00,54.4,50.2,30.05,West,270,0.0,0.0,86,0.00,,,0.00,WUHU216HW,2013-03-17 10:39:00,
2013-03-17 06:44:00,54.2,50.0,30.05,West,270,0.0,0.0,86,0.00,,,0.00,WUHU216HW,2013-03-17 10:44:00,
2013-03-17 06:49:00,54.0,49.6,30.05,WSW,248,0.0,0.2,85,0.00,,,0.00,WUHU216HW,2013-03-17 10:49:00,
2013-03-17 06:54:00,53.8,49.4,30.05,West,270,0.0,0.2,85,0.00,,,0.00,WUHU216HW,2013-03-17 10:54:00,
2013-03-17 06:59:00,53.6,49.2,30.05,West,270,0.0,0.0,85,0.00,,,0.00,WUHU216HW,2013-03-17 10:59:00,
2013-03-17 07:04:00,53.5,49.1,30.05,West,270,0.0,0.0,85,0.00,,,0.00,WUHU216HW,2013-03-17 11:04:00,
2013-03-17 07:09:00,53.3,48.9,30.05,NW,315,0.0,0.0,85,0.00,,,0.00,WUHU216HW,2013-03-17 11:09:00,
2013-03-17 07:14:00,53.3,48.9,30.05,NW,315,0.0,0.0,85,0.00,,,0.00,WUHU216HW,2013-03-17 11:14:00,
2013-03-17 07:19:00,53.1,48.4,30.05,NW,315,0.0,0.0,84,0.00,,,0.00,WUHU216HW,2013-03-17 11:19:00,
2013-03-17 07:24:00,53.1,48.7,30.05,NW,315,0.0,0.0,85,0.00,,,0.00,WUHU216HW,2013-03-17 11:24:00,
2013-03-17 07:29:00,53.1,48.7,30.05,NW,315,0.0,0.0,85,0.00,,,0.00,WUHU216HW,2013-03-17 11:29:00,
2013-03-17 07:34:00,53.1,48.7,30.05,NW,315,0.0,0.0,85,0.00,,,0.00,WUHU216HW,2013-03-17 11:34:00,
2013-03-17 07:39:00,53.1,48.7,30.06,WSW,248,0.0,0.0,85,0.00,,,0.00,WUHU216HW,2013-03-17 11:39:00,
2013-03-17 07:44:00,53.1,48.4,30.06,WSW,248,0.0,0.0,84,0.00,,,0.00,WUHU216HW,2013-03-17 11:44:00,
2013-03-17 07:49:00,53.1,48.7,30.06,WSW,248,0.0,0.0,85,0.00,,,0.00,WUHU216HW,2013-03-17 11:49:00,
2013-03-17 07:54:00,53.3,48.9,30.06,WSW,248,0.0,0.0,85,0.00,,,0.00,WUHU216HW,2013-03-17 11:54:00,
2013-03-17 07:59:00,53.3,48.9,30.06,WNW,293,0.4,0.7,85,0.00,,,0.00,WUHU216HW,2013-03-17 11:59:00,
2013-03-17 08:04:00,53.5,49.3,30.06,SW,225,0.7,0.9,86,0.00,,,0.00,WUHU216HW,2013-03-17 12:04:00,
2013-03-17 08:09:00,53.6,49.9,30.06,WNW,293,1.1,1.1,87,0.00,,,0.00,WUHU216HW,2013-03-17 12:09:00,
2013-03-17 08:14:00,53.8,50.3,30.07,SW,225,1.1,1.8,88,0.00,,,0.00,WUHU216HW,2013-03-17 12:14:00,
2013-03-17 08:19:00,54.0,50.5,30.07,West,270,1.8,1.8,88,0.00,,,0.00,WUHU216HW,2013-03-17 12:19:00,
2013-03-17 08:24:00,54.4,50.9,30.08,NW,315,0.7,1.8,88,0.00,,,0.00,WUHU216HW,2013-03-17 12:24:00,
2013-03-17 08:29:00,54.5,51.0,30.08,WSW,248,1.1,1.8,88,0.00,,,0.00,WUHU216HW,2013-03-17 12:29:00,
2013-03-17 08:34:00,54.5,51.3,30.08,West,270,1.1,1.8,89,0.00,,,0.00,WUHU216HW,2013-03-17 12:34:00,
2013-03-17 08:39:00,54.5,51.3,30.08,WNW,293,1.1,1.8,89,0.00,,,0.00,WUHU216HW,2013-03-17 12:39:00,
2013-03-17 08:44:00,54.7,51.8,30.08,WSW,248,1.8,2.2,90,0.00,,,0.00,WUHU216HW,2013-03-17 12:44:00,
2013-03-17 08:49:00,54.7,51.8,30.08,WSW,248,1.6,2.2,90,0.00,,,0.00,WUHU216HW,2013-03-17 12:49:00,
2013-03-17 08:54:00,55.1,51.8,30.08,SW,225,2.5,2.5,89,0.00,,,0.00,WUHU216HW,2013-03-17 12:54:00,
2013-03-17 08:59:00,55.4,52.2,30.08,SW,225,1.1,2.5,89,0.00,,,0.00,WUHU216HW,2013-03-17 12:59:00,
2013-03-17 09:04:00,55.8,52.6,30.08,West,270,0.4,2.2,89,0.00,,,0.00,WUHU216HW,2013-03-17 13:04:00,
2013-03-17 09:09:00,56.5,53.3,30.08,WNW,293,0.9,2.5,89,0.00,,,0.00,WUHU216HW,2013-03-17 13:09:00,
2013-03-17 09:14:00,57.2,53.7,30.08,WSW,248,1.1,2.5,88,0.00,,,0.00,WUHU216HW,2013-03-17 13:14:00,
2013-03-17 09:19:00,58.5,55.0,30.09,WSW,248,1.1,1.8,88,0.00,,,0.00,WUHU216HW,2013-03-17 13:19:00,
2013-03-17 09:27:00,60.1,55.6,30.09,West,270,2.0,2.0,85,0.00,,,0.00,WUHU216HW,2013-03-17 13:27:00,
2013-03-17 09:32:00,60.8,56.0,30.09,SW,225,1.8,2.0,84,0.00,,,0.00,WUHU216HW,2013-03-17 13:32:00,
2013-03-17 09:37:00,61.7,56.5,30.09,WSW,248,0.4,2.7,83,0.00,,,0.00,WUHU216HW,2013-03-17 13:37:00,
2013-03-17 09:42:00,63.2,57.3,30.09,West,270,0.9,2.7,81,0.00,,,0.00,WUHU216HW,2013-03-17 13:42:00,
2013-03-17 09:47:00,64.4,58.1,30.09,West,270,0.7,2.5,80,0.00,,,0.00,WUHU216HW,2013-03-17 13:47:00,
2013-03-17 09:52:00,65.5,58.5,30.09,West,270,0.4,2.7,78,0.00,,,0.00,WUHU216HW,2013-03-17 13:52:00,
2013-03-17 09:57:00,66.2,58.1,30.09,WSW,248,3.8,4.3,75,0.00,,,0.00,WUHU216HW,2013-03-17 13:57:00,
2013-03-17 10:02:00,65.9,57.0,30.09,SSE,158,2.5,4.3,73,0.00,,,0.00,WUHU216HW,2013-03-17 14:02:00,
2013-03-17 10:07:00,65.3,56.8,30.09,NW,315,1.8,4.0,74,0.00,,,0.00,WUHU216HW,2013-03-17 14:07:00,
2013-03-17 10:12:00,65.9,57.0,30.09,West,270,2.5,4.0,73,0.00,,,0.00,WUHU216HW,2013-03-17 14:12:00,
2013-03-17 10:17:00,65.9,56.3,30.09,SW,225,2.9,4.7,71,0.00,,,0.00,WUHU216HW,2013-03-17 14:17:00,
2013-03-17 10:22:00,65.5,55.9,30.09,SW,225,3.1,5.1,71,0.00,,,0.00,WUHU216HW,2013-03-17 14:22:00,
2013-03-17 10:27:00,65.9,56.3,30.10,West,270,5.4,5.4,71,0.00,,,0.00,WUHU216HW,2013-03-17 14:27:00,
2013-03-17 10:32:00,68.0,58.3,30.09,SSW,203,2.5,5.4,71,0.00,,,0.00,WUHU216HW,2013-03-17 14:32:00,
2013-03-17 10:37:00,68.9,57.5,30.09,WNW,293,3.1,5.6,67,0.00,,,0.00,WUHU216HW,2013-03-17 14:37:00,
2013-03-17 10:42:00,68.4,56.2,30.09,WNW,293,2.0,5.6,65,0.00,,,0.00,WUHU216HW,2013-03-17 14:42:00,
2013-03-17 10:47:00,68.8,56.5,30.09,West,270,4.5,5.4,65,0.00,,,0.00,WUHU216HW,2013-03-17 14:47:00,
2013-03-17 10:52:00,69.3,56.6,30.09,West,270,3.4,5.1,64,0.00,,,0.00,WUHU216HW,2013-03-17 14:52:00,
2013-03-17 10:57:00,69.8,56.7,30.09,South,180,2.0,4.7,63,0.00,,,0.00,WUHU216HW,2013-03-17 14:57:00,
2013-03-17 11:02:00,70.2,57.1,30.09,WNW,293,2.7,5.6,63,0.00,,,0.00,WUHU216HW,2013-03-17 15:02:00,
2013-03-17 11:07:00,71.3,58.1,30.09,West,270,2.0,6.9,63,0.00,,,0.00,WUHU216HW,2013-03-17 15:07:00,
2013-03-17 11:12:00,71.5,55.9,30.09,SW,225,6.0,6.9,58,0.00,,,0.00,WUHU216HW,2013-03-17 15:12:00,
2013-03-17 11:17:00,71.6,56.1,30.09,WNW,293,2.5,6.7,58,0.00,,,0.00,WUHU216HW,2013-03-17 15:17:00,
2013-03-17 11:22:00,72.4,56.7,30.09,West,270,4.0,6.7,58,0.00,,,0.00,WUHU216HW,2013-03-17 15:22:00,
2013-03-17 11:27:00,74.0,55.7,30.10,South,180,4.3,6.9,53,0.00,,,0.00,WUHU216HW,2013-03-17 15:27:00,
2013-03-17 11:32:00,74.2,54.4,30.10,South,180,4.0,7.8,50,0.00,,,0.00,WUHU216HW,2013-03-17 15:32:00,
2013-03-17 11:37:00,74.0,51.8,30.09,WSW,248,8.5,8.5,46,0.00,,,0.00,WUHU216HW,2013-03-17 15:37:00,
2013-03-17 11:42:00,74.3,52.8,30.08,WSW,248,2.0,8.5,47,0.00,,,0.00,WUHU216HW,2013-03-17 15:42:00,
2013-03-17 11:47:00,75.8,54.7,30.08,South,180,4.7,8.5,48,0.00,,,0.00,WUHU216HW,2013-03-17 15:47:00,
2013-03-17 11:52:00,76.7,52.5,30.08,WSW,248,4.0,6.3,43,0.00,,,0.00,WUHU216HW,2013-03-17 15:52:00,
2013-03-17 11:57:00,76.3,52.7,30.08,SSW,203,2.7,6.3,44,0.00,,,0.00,WUHU216HW,2013-03-17 15:57:00,
2013-03-17 12:02:00,77.0,54.0,30.07,NW,315,3.4,6.3,45,0.00,,,0.00,WUHU216HW,2013-03-17 16:02:00,
2013-03-17 12:07:00,77.9,53.0,30.07,SW,225,4.9,5.8,42,0.00,,,0.00,WUHU216HW,2013-03-17 16:07:00,
2013-03-17 12:12:00,76.7,50.6,30.07,SW,225,3.1,5.8,40,0.00,,,0.00,WUHU216HW,2013-03-17 16:12:00,
2013-03-17 12:17:00,75.2,50.6,30.07,NW,315,2.0,4.9,42,0.00,,,0.00,WUHU216HW,2013-03-17 16:17:00,
2013-03-17 12:22:00,75.6,50.9,30.07,SSW,203,4.0,5.4,42,0.00,,,0.00,WUHU216HW,2013-03-17 16:22:00,
2013-03-17 12:27:00,76.5,51.7,30.07,SW,225,4.5,5.4,42,0.00,,,0.00,WUHU216HW,2013-03-17 16:27:00,
2013-03-17 12:32:00,77.2,51.1,30.07,SSW,203,2.9,5.6,40,0.00,,,0.00,WUHU216HW,2013-03-17 16:32:00,
2013-03-17 12:37:00,76.5,49.7,30.06,SSE,158,3.4,8.1,39,0.00,,,0.00,WUHU216HW,2013-03-17 16:37:00,
2013-03-17 12:42:00,76.1,50.1,30.07,West,270,5.4,8.1,40,0.00,,,0.00,WUHU216HW,2013-03-17 16:42:00,
2013-03-17 12:47:00,77.0,49.4,30.07,WSW,248,6.3,6.9,38,0.00,,,0.00,WUHU216HW,2013-03-17 16:47:00,
2013-03-17 12:52:00,77.2,49.6,30.07,SSW,203,3.1,6.9,38,0.00,,,0.00,WUHU216HW,2013-03-17 16:52:00,
2013-03-17 12:57:00,77.0,50.2,30.06,West,270,5.4,6.0,39,0.00,,,0.00,WUHU216HW,2013-03-17 16:57:00,
2013-03-17 13:02:00,78.1,51.1,30.06,South,180,1.8,5.4,39,0.00,,,0.00,WUHU216HW,2013-03-17 17:02:00,
2013-03-17 13:08:00,79.0,51.9,30.05,SSW,203,3.1,5.4,39,0.00,,,0.00,WUHU216HW,2013-03-17 17:08:00,
2013-03-17 13:13:00,78.5,50.7,30.05,West,270,3.1,5.4,38,0.00,,,0.00,WUHU216HW,2013-03-17 17:13:00,
2013-03-17 13:18:00,78.1,51.1,30.05,West,270,4.9,5.4,39,0.00,,,0.00,WUHU216HW,2013-03-17 17:18:00,
2013-03-17 13:23:00,78.5,52.8,30.04,West,270,5.4,6.0,41,0.00,,,0.00,WUHU216HW,2013-03-17 17:23:00,
2013-03-17 13:28:00,78.8,51.8,30.04,SSW,203,2.5,6.0,39,0.00,,,0.00,WUHU216HW,2013-03-17 17:28:00,
2013-03-17 13:33:00,78.5,52.2,30.04,West,270,4.5,5.4,40,0.00,,,0.00,WUHU216HW,2013-03-17 17:33:00,
2013-03-17 13:38:00,78.3,52.7,30.04,West,270,3.1,5.4,41,0.00,,,0.00,WUHU216HW,2013-03-17 17:38:00,
2013-03-17 13:43:00,79.2,53.5,30.05,WSW,248,4.7,6.3,41,0.00,,,0.00,WUHU216HW,2013-03-17 17:43:00,
2013-03-17 13:48:00,80.3,53.8,30.03,WSW,248,3.1,6.3,40,0.00,,,0.00,WUHU216HW,2013-03-17 17:48:00,
2013-03-17 13:53:00,79.7,51.9,30.03,West,270,6.3,6.3,38,0.00,,,0.00,WUHU216HW,2013-03-17 17:53:00,
2013-03-17 13:58:00,79.6,51.7,30.03,SW,225,5.4,6.3,38,0.00,,,0.00,WUHU216HW,2013-03-17 17:58:00,
2013-03-17 14:03:00,79.7,52.6,30.03,West,270,3.6,7.6,39,0.00,,,0.00,WUHU216HW,2013-03-17 18:03:00,
2013-03-17 14:08:00,80.3,53.1,30.03,WNW,293,1.1,7.6,39,0.00,,,0.00,WUHU216HW,2013-03-17 18:08:00,
2013-03-17 14:13:00,80.5,51.0,30.02,SE,135,1.6,5.4,36,0.00,,,0.00,WUHU216HW,2013-03-17 18:13:00,
2013-03-17 14:18:00,79.4,50.8,30.02,SSW,203,5.1,6.0,37,0.00,,,0.00,WUHU216HW,2013-03-17 18:18:00,
2013-03-17 14:23:00,79.0,51.9,30.02,NW,315,2.9,6.0,39,0.00,,,0.00,WUHU216HW,2013-03-17 18:23:00,
2013-03-17 14:28:00,78.8,51.8,30.02,WSW,248,4.0,5.1,39,0.00,,,0.00,WUHU216HW,2013-03-17 18:28:00,
2013-03-17 14:33:00,78.3,51.3,30.02,NNW,338,3.8,4.3,39,0.00,,,0.00,WUHU216HW,2013-03-17 18:33:00,
2013-03-17 14:38:00,77.9,51.0,30.02,SW,225,1.6,4.5,39,0.00,,,0.00,WUHU216HW,2013-03-17 18:38:00,
2013-03-17 14:43:00,77.4,50.5,30.01,SSW,203,4.7,4.7,39,0.00,,,0.00,WUHU216HW,2013-03-17 18:43:00,
2013-03-17 14:48:00,76.7,49.9,30.01,SW,225,3.1,4.7,39,0.00,,,0.00,WUHU216HW,2013-03-17 18:48:00,
2013-03-17 14:53:00,76.1,49.4,30.01,West,270,4.7,4.7,39,0.00,,,0.00,WUHU216HW,2013-03-17 18:53:00,
2013-03-17 14:58:00,76.1,50.1,30.01,West,270,2.5,4.7,40,0.00,,,0.00,WUHU216HW,2013-03-17 18:58:00,
2013-03-17 15:03:00,76.0,50.0,30.01,WSW,248,4.5,4.9,40,0.00,,,0.00,WUHU216HW,2013-03-17 19:03:00,
2013-03-17 15:08:00,75.4,49.5,30.00,WNW,293,4.5,5.4,40,0.00,,,0.00,WUHU216HW,2013-03-17 19:08:00,
2013-03-17 15:13:00,75.4,50.1,30.00,WSW,248,2.9,5.4,41,0.00,,,0.00,WUHU216HW,2013-03-17 19:13:00,
2013-03-17 15:18:00,75.4,49.5,30.00,SSW,203,4.0,4.0,40,0.00,,,0.00,WUHU216HW,2013-03-17 19:18:00,
2013-03-17 15:23:00,75.2,50.0,30.00,SW,225,2.9,4.0,41,0.00,,,0.00,WUHU216HW,2013-03-17 19:23:00,
2013-03-17 15:28:00,75.2,50.0,30.00,West,270,2.9,6.7,41,0.00,,,0.00,WUHU216HW,2013-03-17 19:28:00,
2013-03-17 15:33:00,75.4,50.1,30.00,WNW,293,4.7,6.7,41,0.00,,,0.00,WUHU216HW,2013-03-17 19:33:00,
2013-03-17 15:38:00,75.2,49.3,29.99,SW,225,3.6,5.4,40,0.00,,,0.00,WUHU216HW,2013-03-17 19:38:00,
2013-03-17 15:43:00,75.2,50.0,30.00,SW,225,6.7,6.7,41,0.00,,,0.00,WUHU216HW,2013-03-17 19:43:00,
2013-03-17 15:48:00,75.2,50.0,30.00,West,270,3.6,6.7,41,0.00,,,0.00,WUHU216HW,2013-03-17 19:48:00,
2013-03-17 15:53:00,75.6,49.7,30.00,WNW,293,5.4,6.9,40,0.00,,,0.00,WUHU216HW,2013-03-17 19:53:00,
2013-03-17 15:58:00,75.2,49.3,30.00,SSW,203,4.0,6.9,40,0.00,,,0.00,WUHU216HW,2013-03-17 19:58:00,
2013-03-17 16:03:00,75.2,50.0,30.00,WNW,293,4.3,4.3,41,0.00,,,0.00,WUHU216HW,2013-03-17 20:03:00,
2013-03-17 16:08:00,75.2,50.6,30.00,North,0,0.4,4.7,42,0.00,,,0.00,WUHU216HW,2013-03-17 20:08:00,
2013-03-17 16:13:00,75.1,49.8,29.99,NNW,338,2.0,4.7,41,0.00,,,0.00,WUHU216HW,2013-03-17 20:13:00,
2013-03-17 16:18:00,74.9,50.2,29.99,SW,225,4.7,4.7,42,0.00,,,0.00,WUHU216HW,2013-03-17 20:18:00,
2013-03-17 16:23:00,74.5,49.9,29.99,West,270,2.2,4.7,42,0.00,,,0.00,WUHU216HW,2013-03-17 20:23:00,
2013-03-17 16:28:00,74.5,49.9,29.99,WSW,248,2.5,4.9,42,0.00,,,0.00,WUHU216HW,2013-03-17 20:28:00,
2013-03-17 16:33:00,74.2,49.0,29.99,SW,225,5.4,5.4,41,0.00,,,0.00,WUHU216HW,2013-03-17 20:33:00,
2013-03-17 16:38:00,74.2,49.6,29.98,South,180,3.8,5.4,42,0.00,,,0.00,WUHU216HW,2013-03-17 20:38:00,
2013-03-17 16:43:00,74.2,49.6,29.99,WSW,248,1.8,4.0,42,0.00,,,0.00,WUHU216HW,2013-03-17 20:43:00,
2013-03-17 16:48:00,73.8,49.2,29.99,South,180,2.0,4.0,42,0.00,,,0.00,WUHU216HW,2013-03-17 20:48:00,
2013-03-17 16:53:00,73.6,49.7,29.98,SW,225,3.6,3.6,43,0.00,,,0.00,WUHU216HW,2013-03-17 20:53:00,
2013-03-17 16:58:00,73.4,50.0,29.98,SW,225,2.2,3.8,44,0.00,,,0.00,WUHU216HW,2013-03-17 20:58:00,
2013-03-17 17:03:00,73.1,49.8,29.98,SW,225,1.8,4.0,44,0.00,,,0.00,WUHU216HW,2013-03-17 21:03:00,
2013-03-17 17:08:00,73.1,49.8,29.98,WNW,293,4.3,5.4,44,0.00,,,0.00,WUHU216HW,2013-03-17 21:08:00,
2013-03-17 17:13:00,72.7,50.1,29.98,SSW,203,1.1,5.4,45,0.00,,,0.00,WUHU216HW,2013-03-17 21:13:00,
2013-03-17 17:18:00,72.4,49.7,29.98,SW,225,1.6,5.4,45,0.00,,,0.00,WUHU216HW,2013-03-17 21:18:00,
2013-03-17 17:23:00,72.4,49.7,29.98,NW,315,3.4,4.5,45,0.00,,,0.00,WUHU216HW,2013-03-17 21:23:00,
2013-03-17 17:28:00,72.4,49.7,29.98,WNW,293,1.6,3.4,45,0.00,,,0.00,WUHU216HW,2013-03-17 21:28:00,
2013-03-17 17:33:00,72.4,49.7,29.97,SSW,203,2.0,3.4,45,0.00,,,0.00,WUHU216HW,2013-03-17 21:33:00,
2013-03-17 17:38:00,72.4,49.7,29.98,SSW,203,1.6,2.9,45,0.00,,,0.00,WUHU216HW,2013-03-17 21:38:00,
2013-03-17 17:43:00,72.0,50.0,29.99,SW,225,1.6,2.9,46,0.00,,,0.00,WUHU216HW,2013-03-17 21:43:00,
2013-03-17 17:48:00,71.8,49.8,29.99,West,270,4.7,4.7,46,0.00,,,0.00,WUHU216HW,2013-03-17 21:48:00,
2013-03-17 17:53:00,71.6,49.7,29.99,SW,225,2.0,4.7,46,0.00,,,0.00,WUHU216HW,2013-03-17 21:53:00,
2013-03-17 17:58:00,71.6,50.2,30.00,WSW,248,1.3,3.6,47,0.00,,,0.00,WUHU216HW,2013-03-17 21:58:00,
2013-03-17 18:03:00,71.5,50.0,30.00,WSW,248,2.2,4.3,47,0.00,,,0.00,WUHU216HW,2013-03-17 22:03:00,
2013-03-17 18:08:00,71.3,50.0,29.99,West,270,1.1,4.3,47,0.00,,,0.00,WUHU216HW,2013-03-17 22:08:00,
2013-03-17 18:13:00,71.1,49.8,30.00,WNW,293,1.8,3.4,47,0.00,,,0.00,WUHU216HW,2013-03-17 22:13:00,
2013-03-17 18:18:00,71.1,50.3,30.00,West,270,2.0,2.0,48,0.00,,,0.00,WUHU216HW,2013-03-17 22:18:00,
2013-03-17 18:23:00,71.1,50.3,30.00,SSW,203,0.4,2.0,48,0.00,,,0.00,WUHU216HW,2013-03-17 22:23:00,
2013-03-17 18:28:00,70.9,50.2,30.00,WSW,248,1.1,2.0,48,0.00,,,0.00,WUHU216HW,2013-03-17 22:28:00,
2013-03-17 18:33:00,70.6,49.9,30.00,West,270,1.8,1.8,48,0.00,,,0.00,WUHU216HW,2013-03-17 22:33:00,
2013-03-17 18:38:00,70.6,49.9,30.00,West,270,0.9,1.8,48,0.00,,,0.00,WUHU216HW,2013-03-17 22:38:00,
2013-03-17 18:43:00,70.4,50.3,30.00,West,270,1.3,1.3,49,0.00,,,0.00,WUHU216HW,2013-03-17 22:43:00,
2013-03-17 18:48:00,70.4,50.3,30.00,SSW,203,0.0,1.6,49,0.00,,,0.00,WUHU216HW,2013-03-17 22:48:00,
2013-03-17 18:53:00,70.2,50.1,30.00,West,270,0.0,1.6,49,0.00,,,0.00,WUHU216HW,2013-03-17 22:53:00,
2013-03-17 18:58:00,70.0,50.0,30.01,WSW,248,1.1,1.1,49,0.00,,,0.00,WUHU216HW,2013-03-17 22:58:00,
2013-03-17 19:03:00,69.8,51.0,30.01,WSW,248,0.0,1.1,51,0.00,,,0.00,WUHU216HW,2013-03-17 23:03:00,
2013-03-17 19:08:00,69.5,50.6,30.01,WSW,248,0.0,0.4,51,0.00,,,0.00,WUHU216HW,2013-03-17 23:08:00,
2013-03-17 19:13:00,69.3,50.0,30.01,WSW,248,0.0,0.0,50,0.00,,,0.00,WUHU216HW,2013-03-17 23:13:00,
2013-03-17 19:18:00,69.1,49.8,30.01,West,270,0.0,0.0,50,0.00,,,0.00,WUHU216HW,2013-03-17 23:18:00,
2013-03-17 19:23:00,69.1,49.8,30.01,West,270,0.0,0.7,50,0.00,,,0.00,WUHU216HW,2013-03-17 23:23:00,
2013-03-17 19:28:00,69.1,50.2,30.01,West,270,0.0,0.7,51,0.00,,,0.00,WUHU216HW,2013-03-17 23:28:00,
2013-03-17 19:33:00,68.9,50.1,30.01,WNW,293,0.0,0.0,51,0.00,,,0.00,WUHU216HW,2013-03-17 23:33:00,
2013-03-17 19:38:00,68.8,50.4,30.01,WNW,293,0.0,0.0,52,0.00,,,0.00,WUHU216HW,2013-03-17 23:38:00,
2013-03-17 19:43:00,68.4,50.0,30.01,NNW,338,0.0,0.0,52,0.00,,,0.00,WUHU216HW,2013-03-17 23:43:00,
2013-03-17 19:48:00,68.2,50.0,30.01,NNW,338,0.0,0.0,52,0.00,,,0.00,WUHU216HW,2013-03-17 23:48:00,
2013-03-17 19:53:00,68.0,50.2,30.01,NNW,338,0.0,0.0,53,0.00,,,0.00,WUHU216HW,2013-03-17 23:53:00,
2013-03-17 19:58:00,68.0,50.2,30.01,NNW,338,0.0,0.0,53,0.00,,,0.00,WUHU216HW,2013-03-17 23:58:00,
2013-03-17 20:03:00,67.9,50.0,30.01,NNW,338,0.0,0.0,53,0.00,,,0.00,WUHU216HW,2013-03-18 00:03:00,
2013-03-17 20:08:00,67.7,50.4,30.02,NNW,338,0.0,0.0,54,0.00,,,0.00,WUHU216HW,2013-03-18 00:08:00,
2013-03-17 20:13:00,67.5,50.2,30.02,NNW,338,0.0,0.0,54,0.00,,,0.00,WUHU216HW,2013-03-18 00:13:00,
2013-03-17 20:18:00,67.3,50.0,30.02,NNW,338,0.0,0.0,54,0.00,,,0.00,WUHU216HW,2013-03-18 00:18:00,
2013-03-17 20:24:00,67.1,50.4,30.02,NNW,338,0.0,0.0,55,0.00,,,0.00,WUHU216HW,2013-03-18 00:24:00,
2013-03-17 20:29:00,67.0,50.8,30.02,NNW,338,0.0,0.0,56,0.00,,,0.00,WUHU216HW,2013-03-18 00:29:00,
2013-03-17 20:34:00,66.8,50.6,30.02,NNW,338,0.0,0.0,56,0.00,,,0.00,WUHU216HW,2013-03-18 00:34:00,
2013-03-17 20:39:00,66.8,51.0,30.02,NNW,338,0.0,0.0,57,0.00,,,0.00,WUHU216HW,2013-03-18 00:39:00,
2013-03-17 20:44:00,66.6,51.4,30.03,NNW,338,0.0,0.0,58,0.00,,,0.00,WUHU216HW,2013-03-18 00:44:00,
2013-03-17 20:49:00,66.4,51.2,30.03,NNW,338,0.0,0.0,58,0.00,,,0.00,WUHU216HW,2013-03-18 00:49:00,
2013-03-17 20:54:00,66.2,51.6,30.03,NNW,338,0.0,0.0,59,0.00,,,0.00,WUHU216HW,2013-03-18 00:54:00,
2013-03-17 20:59:00,66.2,51.6,30.03,WNW,293,0.0,0.0,59,0.00,,,0.00,WUHU216HW,2013-03-18 00:59:00,
2013-03-17 21:04:00,66.1,51.8,30.03,WNW,293,0.0,0.0,60,0.00,,,0.00,WUHU216HW,2013-03-18 01:04:00,
2013-03-17 21:09:00,65.9,51.7,30.03,North,0,0.0,0.0,60,0.00,,,0.00,WUHU216HW,2013-03-18 01:09:00,
2013-03-17 21:14:00,65.7,51.9,30.03,NNE,23,0.4,0.9,61,0.00,,,0.00,WUHU216HW,2013-03-18 01:14:00,
2013-03-17 21:19:00,65.7,51.9,30.03,NNE,23,0.0,0.9,61,0.00,,,0.00,WUHU216HW,2013-03-18 01:19:00,
2013-03-17 21:24:00,65.7,52.3,30.03,SSW,203,0.4,0.9,62,0.00,,,0.00,WUHU216HW,2013-03-18 01:24:00,
2013-03-17 21:29:00,65.3,52.4,30.03,SSW,203,0.0,0.9,63,0.00,,,0.00,WUHU216HW,2013-03-18 01:29:00,
2013-03-17 21:34:00,65.2,52.2,30.03,SSW,203,0.0,0.7,63,0.00,,,0.00,WUHU216HW,2013-03-18 01:34:00,
2013-03-17 21:39:00,65.2,52.2,30.03,SSW,203,0.0,0.0,63,0.00,,,0.00,WUHU216HW,2013-03-18 01:39:00,
2013-03-17 21:44:00,65.2,52.2,30.03,SSW,203,0.0,0.0,63,0.00,,,0.00,WUHU216HW,2013-03-18 01:44:00,
2013-03-17 21:49:00,65.2,52.2,30.03,SSW,203,0.0,0.0,63,0.00,,,0.00,WUHU216HW,2013-03-18 01:49:00,
2013-03-17 21:54:00,65.2,52.2,30.03,SSW,203,0.0,0.0,63,0.00,,,0.00,WUHU216HW,2013-03-18 01:54:00,
2013-03-17 21:59:00,65.2,52.2,30.04,SSW,203,0.0,0.0,63,0.00,,,0.00,WUHU216HW,2013-03-18 01:59:00,
2013-03-17 22:04:00,65.2,52.7,30.03,SSW,203,0.0,0.0,64,0.00,,,0.00,WUHU216HW,2013-03-18 02:04:00,
2013-03-17 22:09:00,65.0,52.5,30.03,East,90,0.0,0.0,64,0.00,,,0.00,WUHU216HW,2013-03-18 02:09:00,
2013-03-17 22:14:00,65.0,52.5,30.03,East,90,0.0,0.0,64,0.00,,,0.00,WUHU216HW,2013-03-18 02:14:00,
2013-03-17 22:19:00,64.8,52.3,30.04,East,90,0.0,0.0,64,0.00,,,0.00,WUHU216HW,2013-03-18 02:19:00,
2013-03-17 22:24:00,64.8,52.3,30.03,East,90,0.0,0.0,64,0.00,,,0.00,WUHU216HW,2013-03-18 02:24:00,
2013-03-17 22:29:00,64.6,52.6,30.04,ENE,68,0.0,0.0,65,0.00,,,0.00,WUHU216HW,2013-03-18 02:29:00,
2013-03-17 22:34:00,64.6,52.6,30.04,ENE,68,0.0,0.0,65,0.00,,,0.00,WUHU216HW,2013-03-18 02:34:00,
2013-03-17 22:39:00,64.6,52.6,30.04,ENE,68,0.0,0.0,65,0.00,,,0.00,WUHU216HW,2013-03-18 02:39:00,
2013-03-17 22:44:00,64.6,52.6,30.04,ENE,68,0.0,0.0,65,0.00,,,0.00,WUHU216HW,2013-03-18 02:44:00,
2013-03-17 22:49:00,64.4,52.4,30.04,ENE,68,0.0,0.0,65,0.00,,,0.00,WUHU216HW,2013-03-18 02:49:00,
2013-03-17 22:54:00,64.4,52.4,30.04,ENE,68,0.0,0.0,65,0.00,,,0.00,WUHU216HW,2013-03-18 02:54:00,
2013-03-17 22:59:00,64.4,52.4,30.04,ENE,68,0.0,0.0,65,0.00,,,0.00,WUHU216HW,2013-03-18 02:59:00,
2013-03-17 23:04:00,64.3,52.7,30.04,ENE,68,0.4,0.4,66,0.00,,,0.00,WUHU216HW,2013-03-18 03:04:00,
2013-03-17 23:09:00,64.3,52.7,30.04,ENE,68,0.0,0.4,66,0.00,,,0.00,WUHU216HW,2013-03-18 03:09:00,
2013-03-17 23:14:00,64.3,52.7,30.04,ENE,68,0.0,0.4,66,0.00,,,0.00,WUHU216HW,2013-03-18 03:14:00,
2013-03-17 23:19:00,64.3,53.1,30.05,ENE,68,0.0,0.0,67,0.00,,,0.00,WUHU216HW,2013-03-18 03:19:00,
2013-03-17 23:24:00,64.1,53.3,30.04,ESE,113,0.0,0.4,68,0.00,,,0.00,WUHU216HW,2013-03-18 03:24:00,
2013-03-17 23:29:00,63.7,53.0,30.04,ESE,113,0.0,0.4,68,0.00,,,0.00,WUHU216HW,2013-03-18 03:29:00,
2013-03-17 23:34:00,63.7,53.0,30.04,ESE,113,0.0,0.0,68,0.00,,,0.00,WUHU216HW,2013-03-18 03:34:00,
2013-03-17 23:39:00,63.7,53.0,30.04,ESE,113,0.0,0.0,68,0.00,,,0.00,WUHU216HW,2013-03-18 03:39:00,
2013-03-17 23:44:00,63.7,53.4,30.05,South,180,0.4,0.4,69,0.00,,,0.00,WUHU216HW,2013-03-18 03:44:00,
2013-03-17 23:49:00,63.5,53.6,30.05,SSE,158,0.4,0.7,70,0.00,,,0.00,WUHU216HW,2013-03-18 03:49:00,
2013-03-17 23:54:00,63.4,53.5,30.04,SE,135,0.0,0.7,70,0.00,,,0.00,WUHU216HW,2013-03-18 03:54:00,
2013-03-17 23:59:00,63.4,53.5,30.04,SE,135,0.0,0.4,70,0.00,,,0.00,WUHU216HW,2013-03-18 03:59:00,